HULIANWANG DIGUI-55

导读 | 豆包AI

HULIANWANG DIGUI-55是中国于2025年8月4日发射的卫星,从命名判断属于低轨互联网卫星星座组网卫星,该星座旨在构建全球覆盖的卫星互联网通信网络,可为全球各地用户提供全天候、无缝衔接的宽带互联网接入服务,助力偏远地区网络覆盖,补充地面通信基础设施,推动天地一体化信息网络建设。

Basic Information
目录编号:
65112
目录名称:
HULIANWANG DIGUI-55
国际标识:
2025-168G
轨道中心:
EARTH
卫星名称:
HULIANWANG DIGUI-55
卫星全名:
HULIANWANG DIGUI-55
卫星状态:
在轨 (已飞行222 天)
发射日期:
2025-08-04 UTC
国别 :
中国 (CN)
星等 :
--
Orbit Information
数据来源 国际轨道数据 AOE轨道数据
星历时间 2026-03-13T23:23:33+0800
11小时前
查看轨道信息
2026-03-12T16:00:00+0800
1天前
查看轨道信息
半长轴 7527.391km 7527.394km
偏心率 0.001138 0.0011478
轨道倾角 50.000° 50.000°
近地点辐角 166.509° 162.900°
升交点赤经 308.217° 312.909°
平近点角 193.609° 53.620°
近地点 1140.687km 1140.617km
远地点 1157.821km 1157.897km
周期 108.324分钟 108.324分钟
每日圈数 13.293401 13.293392
Detailed Information
使用方式:
暂无
2D Orbit Map
3D Orbit Map
Orbit Altitude Analysis Chart
Orbit Inclination Analysis Chart
Orbit Comprehensive Analysis Chart
View Comprehensive Chart